APRIZESAT 8 (39425 NORAD) Tracking and Keplerian Element Data

This shows tracking and keplerian element data for the satellite.

Feedback or suggestion? Click here.




ElementValue
Catalog39425
NameAPRIZESAT 8
Epoch Orbit25119
Epoch Day198.86707736
Epoch Year2018
RAAN227.7847
Inclination97.5806
Eccentricity0.0053193
Argument of Perigee51.7223
Mean Anonmoly308.8758
Mean Motion14.8104806
Decay Rate3.2E-07
L11 39425U 13066K 18198.86707736 .00000032 00000-0 10439-4 0 9996
L22 39425 97.5806 227.7847 0053193 51.7223 308.8758 14.81048060251197

Live tracking and technical data element details for APRIZESAT 8 (NORAD 39425). APRIZESAT 8 can be tracked NOW for your location showing map with azimuth and elevation plus other details from your city location.

Track the satellite on the map from your city or location and see movement details for azimuth, elevation, latitude, longitude, range, height, and movement on the map or in text.







IsCatalogInMostPopularTable: catalog: 39425, numindb: 49
Update: records affected: 1



GetName: 39425 APRIZESAT 8

Hit Count: updated at: Thu, 19 Jul 2018 21:24:54 GMT